Theta_e
328 321 323 327 324 320 312 311 297 300 300 293 290 292 292 300 301 299 300 303 304 310 314 316 315 316 314 314 316 318 319 315 316 303 302 319 330 333 332 332 334 336 335 337 341 343 344 347 347 347 347 346 346 346 345 342 341 341 341 341 341 340 341 341 341 341 341 341 342 342 342 340 342 342 347 347 347 346 346 345 343 342 342 343 343 344 343 342 341 341 342 342 340 338 338 338 337
324 319 319 319 317 314 305 311 298 292 294 289 294 294 296 297 298 297 303 306 307 311 314 314 314 316 322 321 321 321 318 321 321 320 325 330 331 331 333 334 335 334 335 338 342 342 343 345 347 347 346 345 345 345 343 343 342 342 342 342 342 342 341 341 340 342 341 341 341 340 342 341 342 342 346 346 346 346 345 345 343 340 339 339 340 341 342 343 342 342 341 341 340 337 337 337 337
323 319 320 317 316 312 309 303 294 291 290 287 290 294 300 303 303 304 307 309 312 314 313 313 316 316 314 319 318 316 311 325 325 326 324 330 325 327 332 333 334 334 335 337 342 342 342 344 346 346 346 345 344 343 342 341 342 343 343 342 342 341 341 341 341 341 341 341 341 341 341 342 342 343 346 347 346 345 344 343 342 341 341 341 341 341 342 342 341 341 340 339 339 338 337 336 337
329 325 321 313 304 309 301 298 294 293 289 288 290 296 301 303 304 306 308 310 312 312 313 312 313 317 318 317 318 323 319 321 327 324 322 323 325 330 331 332 334 334 334 338 342 342 342 344 345 347 346 345 344 342 341 340 341 342 342 342 341 341 342 341 342 341 339 340 342 341 342 342 342 343 344 345 346 345 345 344 344 344 343 342 343 343 341 341 340 340 340 340 340 337 336 337 336
323 326 321 312 308 301 302 298 295 290 288 288 289 299 303 306 307 308 309 310 310 311 312 314 312 316 322 321 322 315 315 324 326 329 325 328 331 330 331 332 332 332 335 341 342 342 342 344 345 346 346 345 343 341 341 341 342 341 339 341 341 340 340 340 340 340 339 339 340 340 340 341 341 342 344 344 344 344 343 343 342 342 342 341 340 340 340 339 338 338 340 340 338 337 336 336 336
322 319 323 312 305 307 301 293 289 291 293 293 291 299 305 307 308 307 309 310 311 312 312 312 313 313 318 320 322 318 325 317 325 326 326 325 330 331 331 332 331 334 339 340 341 341 341 342 344 345 347 345 343 342 343 343 342 338 340 341 339 339 339 336 336 337 337 339 340 341 342 341 340 341 345 345 344 344 345 344 343 341 341 340 341 341 341 340 340 339 338 338 337 337 336 336 336
319 313 313 310 309 306 295 292 294 291 295 295 296 303 306 307 308 308 308 308 311 311 313 313 321 319 315 319 322 326 329 328 325 326 328 329 330 330 331 330 330 336 339 340 340 340 341 342 345 347 346 345 343 343 342 342 341 339 339 340 339 339 339 339 339 341 342 342 341 341 341 341 340 340 342 342 342 342 342 343 342 341 340 339 339 338 338 339 339 339 339 338 337 337 336 335 335
323 310 309 300 299 299 294 293 294 291 296 297 299 305 306 308 308 307 306 306 305 306 310 313 313 315 314 322 314 325 329 329 328 330 330 330 330 329 329 328 334 338 339 340 340 340 344 341 345 345 345 345 344 343 342 341 340 339 339 339 341 340 339 339 341 341 341 342 342 341 341 341 341 341 342 342 342 343 342 343 341 340 339 339 339 339 338 338 339 339 338 338 337 336 335 335 335
316 313 312 303 297 298 294 293 294 296 296 297 299 305 312 308 307 305 304 306 306 309 310 311 312 309 315 318 317 324 326 329 330 331 330 330 329 329 329 331 338 338 339 339 340 341 341 341 343 345 344 344 345 343 342 341 340 339 337 341 341 340 339 340 341 341 341 340 340 340 340 339 340 340 342 342 342 342 341 342 340 339 339 339 338 338 337 337 338 338 338 338 337 336 335 335 334
313 310 301 302 301 295 293 292 292 295 296 297 300 304 305 306 305 304 303 302 305 307 310 312 313 315 319 315 318 322 323 329 330 329 329 330 330 328 329 339 340 339 339 340 340 340 340 344 340 341 343 344 344 343 342 341 339 339 339 340 340 339 338 339 340 340 339 339 339 338 338 338 339 340 342 343 342 341 340 340 340 340 339 339 338 338 337 337 337 338 338 338 336 335 334 334 334
305 311 308 299 295 293 292 291 293 297 297 299 299 302 303 305 306 303 303 303 305 309 311 310 310 317 319 318 317 326 330 329 328 326 329 330 328 327 332 340 340 340 339 339 339 340 342 342 341 339 341 341 343 344 343 341 340 341 341 341 340 338 337 341 339 338 338 338 338 337 337 338 339 340 341 341 340 340 339 339 339 339 339 338 338 337 337 337 337 338 338 337 336 335 334 334 333
303 305 304 296 294 293 293 292 294 295 297 298 299 303 303 305 305 301 301 305 308 309 310 309 309 317 316 317 316 325 329 327 327 329 330 329 327 328 331 337 339 340 340 339 340 340 341 342 340 341 337 337 339 340 341 341 343 342 342 341 340 338 337 336 336 337 336 337 338 339 339 339 340 340 341 341 341 339 338 338 338 338 337 337 337 337 337 337 337 337 337 336 335 334 334 333 332
307 308 300 297 293 295 295 292 294 296 295 298 299 304 304 306 304 303 300 301 305 307 308 310 314 310 313 315 321 326 326 326 328 329 329 328 328 329 334 339 340 340 340 340 340 340 339 339 339 338 335 332 333 334 338 340 342 343 343 342 342 341 339 337 336 336 337 339 340 340 340 340 339 339 340 339 339 341 339 339 338 338 337 337 337 336 337 336 336 336 335 335 334 333 332 332 331
311 311 305 296 296 297 297 295 293 294 294 299 300 303 306 304 304 304 302 304 307 307 311 311 314 321 316 319 320 321 324 327 329 330 329 328 328 328 330 338 338 339 339 339 339 340 338 337 337 335 335 334 333 332 333 338 341 342 341 341 341 341 341 342 343 342 341 340 340 339 339 339 338 338 338 338 338 339 337 337 338 338 338 337 337 336 336 335 335 335 335 333 333 332 331 331 331
309 311 303 301 295 295 296 296 292 293 294 299 303 303 305 307 304 305 308 306 309 313 315 317 315 310 311 316 315 320 325 327 329 329 328 326 326 327 329 334 336 336 338 339 339 339 338 337 335 334 333 333 332 331 331 334 335 338 339 339 339 340 340 340 340 338 338 339 337 336 335 333 333 334 335 335 335 335 334 332 335 337 336 336 336 335 334 334 334 334 333 333 332 331 331 330 330
312 307 304 299 293 295 295 296 295 294 295 299 302 304 303 305 305 303 307 308 308 312 311 307 313 312 317 318 319 325 327 328 329 329 327 325 326 326 326 326 330 334 337 337 338 338 338 336 335 334 333 332 331 331 331 332 332 332 335 336 336 336 337 336 335 333 332 331 331 330 329 328 328 328 328 327 330 333 332 329 332 335 334 334 334 334 334 333 333 332 332 331 331 330 330 329 331
311 309 300 297 293 296 296 295 293 292 296 300 302 303 302 303 305 305 307 308 307 306 313 314 313 321 321 321 325 327 328 329 328 328 325 323 323 322 322 322 323 325 331 336 336 337 337 336 335 334 333 332 331 331 331 332 331 330 331 331 332 333 334 333 331 327 325 325 325 324 326 326 326 327 326 325 323 326 323 326 331 335 335 335 334 333 333 332 332 332 331 331 331 331 330 329 328
308 299 297 295 295 294 297 296 296 297 297 299 302 302 301 300 303 305 306 305 305 307 312 315 320 321 324 326 328 328 328 328 328 325 323 321 321 320 319 320 321 322 323 329 335 336 337 336 335 335 334 333 332 332 332 332 331 332 333 333 329 329 328 327 326 326 329 324 322 325 326 326 325 325 326 328 326 327 326 325 329 334 335 334 334 334 333 332 332 331 331 331 331 330 327 316 317
304 299 298 296 299 298 299 298 297 296 297 299 300 300 301 302 302 305 301 301 304 304 310 313 315 320 324 325 326 326 327 327 326 325 322 320 319 320 319 320 321 321 322 323 328 334 336 335 335 335 334 334 332 331 332 330 331 332 332 331 329 326 328 327 327 327 324 324 322 324 324 325 324 325 326 326 325 321 325 324 328 330 331 331 333 333 332 332 332 330 331 331 330 329 321 318 318
307 300 296 298 302 298 298 298 298 298 299 299 298 299 300 303 304 305 302 299 301 302 305 308 313 316 320 323 325 325 326 326 326 324 323 321 319 320 320 320 320 321 322 322 324 327 329 332 333 334 335 333 333 331 330 330 330 330 330 330 329 327 326 327 326 326 325 324 325 324 322 322 325 326 328 327 324 323 322 322 324 326 327 327 328 327 329 330 331 331 330 330 325 320 316 316 317
307 301 297 300 300 296 297 298 298 298 299 298 297 298 297 299 302 303 301 299 298 300 307 310 311 317 320 322 323 325 325 324 324 324 323 322 321 320 321 322 321 323 323 323 323 326 325 326 325 329 334 331 332 331 329 329 330 329 329 329 329 328 327 326 326 326 325 325 325 324 323 325 325 326 325 324 323 323 322 322 322 323 323 323 323 324 321 321 321 318 317 317 318 317 316 317 316
307 302 304 300 297 294 298 298 297 296 298 298 296 297 298 300 300 300 300 297 294 298 303 309 315 320 322 322 323 324 324 323 324 324 323 322 321 320 320 321 322 324 324 323 324 324 324 325 324 324 328 328 331 331 329 329 329 328 327 328 328 328 328 327 325 325 325 326 323 324 324 325 323 323 323 322 323 323 323 322 322 323 322 322 321 321 321 320 317 318 317 318 316 317 317 317 317
301 304 306 302 298 296 299 299 298 297 298 297 297 299 299 298 298 298 299 299 299 302 303 306 316 322 325 325 324 322 323 322 323 323 323 322 322 322 322 322 321 322 323 324 324 324 324 324 323 325 324 325 327 330 329 327 328 327 326 327 326 326 327 326 325 324 325 326 323 323 323 323 322 322 320 320 322 322 322 322 322 322 322 322 321 320 320 321 318 317 319 320 317 316 316 316 317
305 301 307 304 300 298 299 299 298 296 298 299 299 299 298 298 297 299 298 298 300 301 309 311 317 322 326 323 323 323 323 323 323 324 325 323 323 323 324 321 320 321 321 322 324 324 324 324 324 324 324 324 324 325 325 325 326 325 325 325 325 325 326 324 324 324 325 326 323 323 322 322 322 320 321 319 321 322 322 322 321 321 321 321 319 318 319 319 318 316 317 316 317 314 316 316 316
304 304 307 305 301 298 298 297 298 298 299 299 299 300 300 298 298 298 298 298 299 303 313 316 317 321 325 323 323 322 322 322 323 324 324 324 324 325 325 325 319 321 321 321 323 323 324 325 325 325 324 324 324 324 323 322 324 324 323 324 324 324 326 325 324 324 324 325 324 323 321 321 320 322 322 321 319 322 320 321 319 320 321 321 319 316 318 317 316 316 314 315 313 314 315 316 318
306 306 308 301 302 299 299 299 299 299 300 301 300 298 298 301 299 298 299 300 300 302 316 316 316 318 322 323 322 322 322 322 323 322 323 324 325 324 324 325 320 321 322 322 322 323 324 325 325 325 325 325 325 324 323 323 323 322 322 323 324 323 326 327 324 322 324 324 324 323 322 322 320 321 321 320 321 320 318 318 318 318 318 317 316 318 316 315 316 314 315 314 316 316 317 321 320
308 307 307 301 301 303 301 302 302 300 301 298 299 299 301 302 300 296 298 300 298 304 313 316 315 315 320 323 322 322 322 322 322 324 322 323 324 324 324 325 321 321 321 321 322 322 324 325 325 326 326 324 324 323 322 323 322 322 323 323 324 324 323 324 323 323 323 324 325 323 322 322 322 322 322 321 321 320 319 320 320 316 317 317 318 319 319 318 317 317 316 317 318 317 320 320 318
309 308 303 304 305 305 304 302 302 299 300 298 299 298 300 301 299 299 300 299 303 303 307 313 315 315 316 321 322 321 322 323 323 323 322 322 323 324 324 324 324 322 321 321 321 323 324 325 325 325 326 325 324 324 322 323 323 323 323 323 323 324 323 323 321 322 322 324 324 324 323 322 322 320 322 322 322 321 320 319 320 319 320 319 320 320 319 319 319 318 318 317 318 319 317 316 316
306 306 302 302 305 303 305 303 302 303 303 300 301 300 298 297 295 299 301 300 303 303 304 306 312 314 314 319 321 320 321 322 323 323 324 325 325 326 325 326 326 323 323 322 321 322 323 325 325 325 325 324 325 324 323 323 323 324 323 324 323 324 324 324 323 322 323 323 323 324 324 323 323 322 321 322 321 322 322 321 320 320 321 322 322 321 321 319 318 317 317 317 318 318 317 319 318
304 302 300 301 300 299 305 307 306 302 305 303 304 293 298 300 301 302 302 301 300 302 302 303 305 308 309 314 318 318 320 321 322 324 325 325 325 326 325 326 326 325 324 322 322 322 324 325 326 326 325 324 324 325 324 323 324 324 324 324 323 324 324 323 323 323 323 323 323 324 324 324 323 322 322 322 323 323 323 322 321 321 322 322 322 320 320 320 319 317 317 317 320 317 317 319 317
298 302 302 295 295 295 304 306 305 302 302 303 305 296 298 302 304 303 304 302 300 300 301 302 303 304 304 307 315 316 318 321 323 324 325 326 326 326 326 326 326 326 324 323 322 323 323 324 326 326 324 324 323 324 324 324 324 324 324 325 324 325 324 324 323 323 323 323 324 324 324 324 323 323 322 324 323 324 323 322 322 322 322 322 321 321 322 320 320 320 316 316 319 318 318 318 317
303 299 294 296 295 296 298 303 305 301 300 301 303 295 298 303 306 305 301 301 301 300 299 301 303 304 304 305 311 315 316 319 323 325 325 326 327 326 326 326 327 327 326 325 324 323 323 324 324 324 323 324 324 324 325 325 325 325 325 324 325 325 324 324 324 324 324 323 324 325 325 324 324 323 323 324 325 324 323 322 323 322 322 321 322 322 322 321 320 320 320 320 316 316 315 315 313
303 297 290 294 294 295 295 300 303 304 298 299 301 295 295 300 303 301 300 301 300 299 298 300 304 305 304 305 309 313 315 315 319 323 325 326 327 327 327 327 326 327 327 326 325 323 323 323 323 323 322 324 324 324 324 325 325 324 324 325 325 325 324 324 324 324 324 323 324 324 326 325 324 325 324 324 325 325 324 323 322 323 322 322 321 322 321 321 320 320 318 317 319 315 313 313 312
297 297 291 294 295 295 292 297 300 300 299 296 297 296 296 299 298 299 301 300 299 298 298 299 303 304 304 305 308 312 314 315 316 320 324 325 326 327 327 325 326 327 327 327 326 326 324 324 323 323 323 324 324 324 323 324 324 325 324 324 323 325 325 324 324 324 324 324 324 324 326 326 325 326 325 325 326 326 325 324 323 323 323 322 322 321 321 321 320 320 319 316 317 315 313 312 312
295 294 291 293 297 296 296 295 298 297 296 297 296 295 297 301 301 297 297 298 299 299 298 298 299 303 303 305 308 310 312 314 316 318 322 324 324 325 326 326 326 326 327 327 327 327 326 325 323 322 322 323 324 324 322 322 323 324 324 323 323 324 324 325 324 324 324 324 323 324 325 325 324 326 326 325 325 325 324 324 323 322 323 322 321 321 320 319 319 319 318 317 315 316 315 313 313
298 297 295 295 294 294 295 298 299 299 293 292 293 295 297 299 299 300 300 296 297 299 298 298 297 299 303 304 307 309 310 312 316 318 319 323 325 324 324 325 325 326 327 327 327 327 326 326 324 324 323 323 324 323 322 322 322 322 323 322 322 322 324 323 324 324 324 324 324 324 325 326 325 324 325 325 325 324 324 324 324 323 322 322 321 320 319 319 319 317 316 317 316 313 313 316 314
301 299 298 297 297 297 300 298 296 299 294 293 294 294 295 295 296 299 300 299 296 296 297 298 298 297 301 304 306 309 310 312 313 315 318 321 323 324 324 324 324 325 326 327 327 326 327 326 324 323 325 324 324 323 322 322 322 322 321 323 322 323 323 324 323 324 324 324 324 324 324 326 325 324 324 325 324 323 324 324 324 323 322 322 321 321 321 320 320 320 318 316 316 315 316 314 314
300 298 297 297 299 297 300 297 296 298 296 292 293 293 294 295 298 298 298 298 298 297 297 297 298 299 299 303 305 307 310 311 310 312 317 318 321 322 322 323 321 323 324 326 326 326 327 327 325 325 326 325 325 325 323 323 323 323 323 324 324 324 323 323 323 324 325 325 324 325 324 326 326 325 324 325 323 324 324 324 323 324 322 322 322 322 321 318 320 319 318 315 315 317 315 315 315
300 299 299 297 297 296 294 293 295 296 296 291 292 292 294 296 297 299 299 299 299 300 300 300 298 298 299 301 305 306 306 308 309 311 316 318 319 321 322 322 323 325 325 325 326 326 326 326 326 326 327 327 326 326 325 324 324 324 324 322 324 323 325 325 326 325 325 326 326 325 325 326 327 326 325 324 324 324 324 324 324 324 324 323 321 321 321 320 320 319 318 318 315 314 316 314 316
297 297 296 296 298 293 289 291 293 295 294 292 291 289 292 294 294 296 298 300 302 301 301 301 300 299 299 300 302 304 305 307 307 308 313 316 317 320 321 321 322 324 323 324 325 325 326 326 326 327 327 328 328 327 325 327 326 325 324 322 323 324 323 324 325 324 325 325 326 327 327 327 327 327 326 325 325 325 324 324 324 324 324 324 323 322 321 321 320 319 319 319 318 314 314 315 316
298 298 295 296 296 297 291 289 291 292 293 294 291 290 292 293 294 296 299 299 299 301 300 300 300 300 301 302 301 303 305 306 307 307 310 315 316 318 320 322 322 322 323 324 324 325 327 326 327 327 327 327 328 326 326 327 325 324 324 322 322 323 323 322 324 324 325 325 325 326 327 327 328 328 328 327 325 325 325 325 324 324 325 324 324 323 322 322 322 321 320 319 318 318 315 313 314
295 297 298 296 297 292 291 291 290 286 287 291 292 285 284 289 292 293 297 296 297 298 298 300 299 299 299 299 300 301 302 304 307 308 310 314 317 318 319 320 320 321 322 324 325 325 326 327 327 327 326 327 327 327 326 326 325 326 324 323 322 323 323 323 323 324 324 324 325 326 326 327 328 328 329 328 327 325 326 326 325 325 325 324 324 324 324 323 322 321 321 321 319 318 318 313 313
292 295 300 299 299 293 292 291 292 285 284 290 292 287 283 288 291 292 293 293 296 297 298 300 302 301 300 299 300 300 301 302 304 307 310 313 316 317 318 319 320 321 322 324 324 325 325 326 326 327 327 326 326 327 326 324 326 326 326 325 324 323 322 323 325 326 326 326 326 325 326 326 328 328 329 329 329 326 327 327 326 325 325 325 324 324 323 323 323 322 322 321 321 319 316 315 314
292 297 300 299 299 294 293 294 290 287 289 291 289 288 282 283 290 295 296 295 295 296 297 299 301 302 302 301 300 300 301 302 303 305 309 313 316 317 318 320 320 321 322 323 323 324 324 324 325 326 327 325 326 326 325 325 325 325 325 325 324 324 323 323 323 325 325 325 325 325 325 326 327 329 330 329 330 329 327 327 327 326 326 326 324 324 324 324 324 323 322 323 322 320 319 318 315
295 298 300 299 300 298 297 295 291 291 287 285 284 288 285 282 286 291 293 292 294 295 297 298 299 301 302 303 302 301 302 303 304 304 307 312 314 316 318 319 321 322 321 321 322 323 323 324 323 324 325 325 325 325 324 325 324 325 325 325 324 324 324 324 321 322 323 323 324 325 325 326 326 327 329 330 330 330 327 327 328 327 327 326 324 325 325 325 324 323 322 321 321 320 320 319 317
299 299 299 299 297 298 297 290 290 290 288 284 285 287 283 287 287 292 291 291 293 296 297 299 300 300 301 302 302 301 300 300 302 304 305 308 313 315 317 319 320 321 322 321 321 321 322 322 322 322 323 325 325 324 324 325 324 323 324 324 324 324 323 322 320 321 322 323 324 324 325 325 326 326 327 328 329 330 329 327 328 328 327 327 323 325 326 325 325 324 323 323 322 321 320 319 318
300 298 297 295 293 291 289 289 285 288 286 285 287 287 286 284 286 291 291 291 295 296 295 297 299 300 301 302 302 302 300 300 301 301 302 303 306 311 312 314 317 318 319 319 319 320 320 321 321 321 323 324 324 324 324 324 324 324 324 324 323 323 322 322 320 320 321 322 323 324 324 325 325 326 327 327 328 329 329 328 328 329 329 327 325 326 326 326 326 325 325 323 322 322 320 319 316
300 293 291 294 290 290 288 287 288 286 284 287 289 288 289 282 282 286 294 293 292 295 295 297 298 298 299 299 301 302 301 301 301 301 301 301 300 299 302 308 310 313 314 316 318 319 319 321 321 320 321 322 323 324 324 324 324 324 324 323 323 323 323 322 321 321 321 321 323 323 323 323 323 325 326 326 327 328 328 329 326 328 327 328 328 328 327 327 326 325 324 323 322 321 320 318 318
298 294 294 290 285 287 285 285 283 284 285 288 286 288 284 287 291 292 294 295 297 294 296 298 297 297 297 296 297 298 299 299 300 300 300 300 301 301 301 305 306 309 313 315 317 318 319 319 320 320 320 321 323 323 323 324 324 324 324 323 323 323 323 322 322 322 322 322 322 322 321 321 320 321 323 324 325 325 326 327 326 326 327 328 328 327 326 326 325 325 324 323 322 320 320 319 318
296 294 290 288 283 283 283 284 286 285 285 285 285 285 286 285 291 297 298 301 301 300 296 295 296 295 295 295 294 296 296 298 299 300 300 300 302 302 302 303 304 307 310 313 314 315 316 318 318 319 320 320 320 320 322 322 323 324 324 324 324 323 322 323 323 322 322 322 321 321 322 322 321 321 322 323 325 325 325 325 325 326 327 327 327 328 327 325 324 325 323 322 321 322 321 319 320
296 295 295 290 289 285 282 284 281 282 281 282 283 283 281 283 287 289 293 295 293 296 298 294 293 293 293 293 296 294 293 294 296 298 299 299 299 299 300 300 300 302 304 307 309 311 313 315 316 317 318 316 317 319 320 321 323 323 324 324 324 324 323 322 322 322 321 320 319 320 321 321 322 322 322 323 321 323 324 325 325 325 324 325 326 326 326 325 324 324 322 322 321 322 321 320 320
293 295 296 290 289 288 284 282 282 277 277 277 278 282 281 287 290 293 295 293 291 290 292 293 294 293 294 295 295 295 295 295 295 294 295 295 296 296 296 296 297 297 297 297 300 303 305 310 310 312 315 312 313 315 318 320 320 321 321 322 323 322 321 320 319 319 319 319 320 320 320 320 321 322 322 320 321 322 323 323 323 323 324 324 325 325 325 324 323 323 322 321 320 321 321 320 320
293 295 291 292 294 291 284 284 284 280 278 278 277 282 285 288 294 298 299 297 295 291 291 291 291 292 292 293 294 294 295 294 294 295 294 295 294 295 298 298 297 297 297 298 299 300 302 303 303 304 303 303 308 310 314 315 317 316 318 319 319 318 319 319 319 318 318 318 319 320 320 320 320 320 320 319 320 320 322 322 322 322 324 324 324 323 325 325 323 321 320 319 320 319 318 319 318
294 289 294 295 295 294 289 284 282 280 277 277 280 281 283 283 285 290 290 292 293 292 291 292 291 290 292 293 293 294 295 295 294 295 295 296 296 297 297 297 299 300 300 298 298 297 298 299 301 302 301 303 304 305 308 311 312 314 314 315 316 318 319 318 317 318 317 317 317 317 317 318 318 318 317 316 318 319 320 315 321 321 323 324 323 321 320 321 323 321 319 319 319 317 317 315 315
297 293 299 295 286 286 285 284 279 280 279 278 278 280 282 284 287 290 292 290 293 292 292 290 291 290 292 292 293 292 292 294 295 296 296 296 296 296 296 298 296 297 297 298 297 298 298 298 297 300 302 303 304 306 306 308 309 314 315 314 314 315 316 316 316 316 315 316 316 314 313 314 312 312 312 312 315 316 317 317 319 320 320 321 322 322 320 319 317 318 319 319 316 315 315 314 312
295 298 296 295 290 286 285 288 284 284 280 275 275 278 280 286 288 292 295 298 295 292 290 291 291 292 292 293 293 293 294 295 295 294 295 296 295 295 296 297 297 296 296 296 297 297 298 299 299 300 300 300 300 302 303 306 305 310 309 307 308 309 310 312 311 312 312 312 311 310 310 311 311 309 311 312 314 316 315 315 315 317 316 316 316 316 319 320 318 316 311 307 306 307 306 305 302
290 293 291 292 288 288 288 288 288 283 274 274 273 276 278 284 291 295 296 297 297 293 293 292 292 292 293 294 294 294 295 295 295 295 295 295 295 294 293 293 295 293 294 295 296 296 296 297 297 297 301 300 301 301 301 302 302 303 305 306 306 307 307 305 307 308 309 309 310 307 307 307 306 311 309 309 311 314 316 316 316 314 315 315 316 315 313 314 317 318 314 312 309 309 308 303 302
294 294 292 294 290 285 286 284 288 282 283 278 273 279 276 286 291 296 296 296 294 293 293 293 293 293 293 294 292 294 296 295 295 294 293 294 293 293 294 293 292 292 293 295 295 295 295 297 298 296 297 298 299 300 301 302 301 302 303 303 302 300 303 304 304 303 304 304 304 304 304 304 308 303 306 308 309 310 309 311 314 315 315 313 311 314 313 314 312 309 307 308 307 307 306 304 303
Wind_Speed
7 6 5 5 1 1 2 2 1 2 2 2 1 1 2 0 2 3 3 3 4 1 2 2 4 6 4 6 12 9 6 1 1 2 2 2 1 6 8 10 10 10 9 5 5 5 6 10 13 12 14 13 14 14 13 13 13 12 12 12 12 12 14 13 13 12 12 12 13 14 15 16 14 15 16 17 18 18 17 17 18 17 17 17 17 18 18 18 18 18 18 18 18 17 16 16 15
5 4 5 4 2 3 1 1 2 1 3 4 0 1 1 1 5 4 5 4 1 1 2 4 6 9 15 15 12 8 9 5 2 3 2 3 8 8 9 9 11 11 8 6 6 5 5 7 11 11 13 13 13 13 13 13 14 13 13 13 13 14 14 12 12 15 14 13 14 14 16 15 15 15 16 16 17 17 17 18 17 16 16 15 16 17 17 18 18 17 17 17 17 16 16 15 15
4 5 6 5 2 1 1 2 1 1 3 2 2 1 3 10 6 4 5 5 4 3 5 4 6 5 5 4 7 5 1 2 6 4 4 4 10 6 8 10 9 10 10 6 6 5 5 7 10 12 13 13 13 13 12 12 14 13 12 13 13 13 14 14 14 14 13 14 14 14 15 15 15 15 16 16 17 17 18 17 16 16 17 16 16 16 17 18 17 17 17 17 17 16 15 15 14
3 1 0 3 3 3 1 2 1 2 2 4 1 2 4 6 4 6 3 4 2 3 2 3 4 3 6 11 9 9 5 2 0 4 4 4 4 7 9 10 10 9 8 7 7 6 5 8 11 11 12 14 13 12 12 11 13 13 11 12 13 13 13 13 14 14 12 13 16 15 15 15 15 15 15 15 16 17 17 17 16 16 17 17 17 18 17 16 16 16 17 16 16 16 15 14 14
2 2 2 2 1 3 1 1 0 3 4 2 5 3 4 7 5 5 2 2 4 5 2 2 3 3 5 5 1 2 1 4 3 0 2 3 6 7 8 7 8 8 8 9 8 7 6 10 10 10 13 14 13 13 12 12 13 12 11 13 12 11 12 12 13 14 14 12 13 14 14 14 14 15 15 15 15 16 16 17 16 16 17 16 16 17 16 16 16 17 16 16 16 15 14 14 14
3 3 1 2 0 2 2 2 4 3 2 2 4 4 4 5 8 4 3 4 3 5 3 4 2 2 5 4 2 3 5 4 5 2 3 4 8 8 7 6 8 9 8 8 8 6 7 10 10 10 13 13 14 14 13 13 12 10 12 14 12 12 11 11 11 10 12 13 13 13 14 14 14 14 16 15 16 16 17 17 16 16 16 16 16 17 16 16 16 16 16 16 16 15 14 14 14
3 4 2 2 2 2 2 1 1 1 4 2 5 6 8 5 6 7 3 3 4 4 4 3 10 8 7 1 4 2 3 6 5 5 3 8 8 9 8 5 8 9 8 7 7 7 7 10 10 10 11 11 13 14 14 13 12 11 11 12 12 12 10 12 12 12 13 13 12 12 12 13 13 13 13 14 14 15 16 16 16 16 15 15 15 15 15 16 16 16 15 16 15 15 14 14 14
0 2 1 3 2 2 1 2 3 2 1 4 3 9 6 8 6 4 3 3 1 2 1 3 3 6 2 3 5 3 7 2 7 9 10 9 8 8 7 4 9 9 8 7 7 6 10 9 10 9 10 11 12 13 14 13 13 11 11 12 12 12 10 11 13 13 12 12 12 12 11 11 13 13 13 14 14 15 15 15 16 15 15 15 15 15 15 15 15 15 15 15 14 14 14 13 13
2 1 1 2 1 1 2 0 1 1 1 2 3 5 8 9 6 4 2 1 1 1 2 2 3 5 1 8 6 2 5 8 9 10 9 9 9 6 6 8 10 7 9 8 7 6 5 8 9 10 10 9 10 12 13 13 12 11 11 13 12 11 11 11 12 12 12 12 12 11 11 11 12 13 15 14 14 14 14 15 15 15 15 14 14 14 14 14 14 14 14 14 13 13 13 12 12
2 1 2 1 1 4 4 4 2 1 3 2 5 6 6 5 5 6 5 3 3 3 0 3 5 7 6 10 6 2 5 7 9 8 6 7 6 6 8 11 10 10 9 8 7 7 5 7 9 10 9 9 9 9 10 10 9 11 11 12 11 11 11 12 12 12 12 12 12 12 11 10 10 12 14 14 14 14 14 15 15 14 14 14 14 13 13 13 14 13 13 13 12 12 12 11 11
1 1 2 1 3 1 3 4 2 1 4 1 3 2 4 4 6 3 4 4 3 3 0 4 7 10 7 3 0 1 4 9 10 8 6 5 5 8 9 10 9 11 9 8 7 6 6 5 10 11 10 9 8 7 8 8 10 13 12 11 10 9 11 14 13 11 11 11 11 11 12 11 11 11 12 13 12 12 13 13 13 14 13 13 13 13 12 12 12 12 12 12 12 12 11 11 10
1 1 2 2 1 2 3 2 3 3 2 2 1 1 1 3 5 5 5 6 2 3 2 3 1 6 6 4 2 3 6 6 7 7 5 5 7 8 9 7 9 9 10 8 7 6 6 6 6 10 11 10 8 8 7 7 8 12 11 11 11 10 10 9 10 10 10 10 11 12 12 11 11 12 11 10 9 11 12 12 12 12 13 12 12 12 12 11 11 11 11 11 11 11 10 10 9
1 0 2 0 2 1 1 2 2 2 2 2 2 0 2 4 1 7 4 5 4 6 1 2 1 4 3 2 2 3 6 5 6 6 5 6 6 7 9 9 10 10 9 8 7 7 6 6 6 7 8 11 10 10 9 10 11 11 10 10 9 9 9 10 10 10 11 12 12 12 12 11 11 11 11 11 11 11 11 10 11 12 13 12 11 11 11 10 10 10 10 10 9 9 9 8 7
0 0 0 2 0 2 1 0 2 5 2 1 1 1 1 1 2 1 8 4 2 4 0 2 4 9 6 5 4 5 5 6 8 6 5 6 6 7 8 8 9 9 9 9 8 7 6 5 6 7 8 7 6 8 9 9 10 10 9 8 8 8 8 10 11 13 13 13 12 10 10 10 11 11 10 11 10 11 12 11 10 12 12 11 10 10 9 9 10 10 9 9 8 8 7 6 4
1 0 1 1 3 1 2 2 3 4 2 0 0 2 1 1 3 7 7 6 2 1 0 2 4 3 6 7 4 7 8 9 10 7 8 6 7 6 6 7 9 8 8 8 8 7 7 6 7 6 5 7 6 5 5 6 10 8 9 9 8 9 10 10 11 11 12 10 11 10 9 10 10 11 10 11 11 10 9 9 9 9 10 9 9 9 8 9 9 8 8 7 7 6 5 3 2
1 1 1 1 2 0 6 3 0 7 1 0 2 2 4 1 2 4 0 2 2 1 1 0 3 2 4 9 7 12 11 10 7 9 8 8 6 5 6 5 6 8 7 8 8 7 7 7 6 5 5 7 5 5 6 5 7 10 9 9 10 10 10 10 11 11 11 11 11 11 10 8 8 8 11 8 10 9 9 7 8 7 8 8 8 7 8 8 8 7 6 5 5 4 3 1 2
1 2 1 1 4 3 4 1 2 3 1 0 2 1 1 0 1 2 1 1 5 1 4 2 1 2 1 4 12 14 12 9 8 10 9 7 6 5 5 3 5 5 4 7 8 7 7 8 7 6 5 6 7 6 5 6 7 8 7 10 10 10 10 10 10 10 10 10 9 9 9 6 5 5 6 6 7 6 7 9 9 7 7 7 7 7 6 6 6 5 5 3 3 1 2 3 4
2 1 2 2 2 2 1 1 1 5 4 2 1 0 3 2 1 0 1 4 2 3 6 2 8 6 4 8 15 14 12 12 10 11 8 7 6 5 5 3 4 5 3 6 7 8 7 7 8 7 6 6 6 6 5 5 6 8 7 5 5 7 8 8 7 5 6 4 8 7 5 5 5 4 5 6 5 5 6 8 8 8 7 6 6 6 5 4 4 4 2 2 2 1 1 2 3
1 1 1 4 0 1 0 0 2 2 4 5 2 3 3 2 4 0 2 1 3 3 2 4 6 6 9 11 13 13 12 11 10 10 10 9 8 8 7 6 6 3 3 4 6 9 8 7 7 7 7 7 7 6 5 5 6 5 6 5 4 6 6 5 5 5 4 4 4 4 3 4 4 4 5 5 5 5 6 7 7 6 5 5 4 3 3 3 2 2 2 3 2 1 1 3 4
2 1 2 1 2 2 3 3 1 2 5 6 4 1 4 1 2 1 1 2 2 6 5 2 7 7 9 9 11 11 11 10 10 11 10 9 8 9 7 8 7 5 4 3 6 5 7 7 8 7 8 7 8 6 6 6 5 5 5 5 5 5 5 4 4 4 4 4 4 3 2 3 4 4 6 11 8 4 4 4 5 5 4 2 2 2 2 2 1 2 3 3 3 1 1 3 4
1 2 3 2 2 2 2 2 2 2 1 4 4 1 3 2 1 2 2 1 2 4 6 11 10 13 12 12 12 11 11 10 9 8 9 8 6 6 7 8 9 8 6 3 3 4 5 7 6 7 7 7 9 7 7 6 6 6 5 6 6 5 5 5 5 5 4 5 5 4 4 4 4 5 5 3 4 3 3 3 3 2 2 2 3 2 2 3 2 3 2 2 2 2 2 3 4
2 4 2 0 1 4 1 1 2 2 3 5 4 6 1 1 1 1 2 2 2 3 4 8 13 15 15 14 12 11 12 12 11 10 11 11 11 10 7 6 6 8 7 6 7 5 5 4 5 5 5 6 8 8 7 7 7 6 6 6 6 6 6 6 5 4 6 5 4 4 5 6 6 6 5 4 4 4 4 4 3 3 2 3 3 2 2 2 3 3 3 4 3 3 3 4 0
4 3 3 1 1 3 1 0 2 2 1 3 2 1 0 1 0 2 4 5 3 4 3 8 12 17 16 14 13 12 12 13 13 14 13 11 9 8 8 9 9 9 9 10 8 6 5 4 4 4 4 6 7 7 6 7 7 6 7 6 7 6 6 6 6 5 6 5 4 4 7 6 6 6 5 4 5 4 4 4 4 4 4 4 3 4 3 4 4 5 3 4 3 3 3 3 2
3 4 4 5 3 4 3 1 1 1 6 1 1 1 1 0 0 0 2 3 5 3 1 7 13 12 13 14 14 16 16 15 15 14 14 14 12 12 8 9 7 6 4 5 7 7 7 6 5 4 5 6 5 5 6 7 6 6 8 8 7 8 7 6 6 6 6 7 5 4 6 6 7 6 5 5 5 5 5 5 5 4 4 5 4 5 4 5 5 4 3 4 4 4 2 2 3
5 1 3 4 3 4 4 3 1 1 0 0 4 2 2 2 1 0 3 4 4 3 4 8 12 13 13 14 14 12 12 11 11 11 8 8 9 9 6 5 6 8 9 8 7 7 8 8 8 7 6 6 5 4 4 5 6 5 6 8 7 6 7 6 6 5 6 6 5 5 4 5 5 5 5 5 5 6 6 5 5 6 6 6 5 4 4 5 4 4 4 5 3 2 3 3 3
5 6 1 0 1 5 5 4 4 3 1 1 1 2 4 5 3 2 7 8 5 5 7 9 12 13 13 13 14 12 12 12 11 10 12 10 10 10 9 7 6 11 12 10 9 8 7 9 10 10 9 8 7 5 5 6 6 5 5 6 7 5 5 5 5 6 6 6 5 4 5 5 5 6 6 5 5 4 3 4 5 5 5 4 5 4 4 3 4 3 4 3 2 2 2 5 4
6 7 4 4 1 2 3 4 4 5 3 3 2 2 2 2 2 4 3 6 4 7 8 8 12 13 12 11 11 12 13 12 14 11 6 8 10 11 11 8 7 10 10 10 10 9 8 9 9 10 9 8 6 6 6 7 6 6 5 6 6 6 4 4 4 6 6 6 6 5 5 5 6 5 6 6 5 5 4 5 5 3 4 5 5 5 4 5 4 5 4 4 3 2 2 3 3
8 8 3 0 2 1 1 2 3 3 2 5 4 5 4 3 1 8 7 2 9 9 9 9 10 10 10 10 11 10 11 12 9 9 13 11 11 11 11 11 10 9 11 12 10 9 9 10 10 9 9 9 9 7 6 6 7 7 6 6 6 6 4 5 4 5 7 7 6 6 5 6 5 5 6 6 6 6 6 6 6 5 6 6 6 6 6 6 5 4 4 3 3 3 2 2 2
5 7 7 2 0 2 3 3 3 3 3 5 4 1 4 3 6 7 10 3 6 9 9 10 10 9 9 9 9 8 10 10 10 10 13 13 11 10 13 12 10 9 8 11 10 10 12 11 10 10 9 9 11 9 8 7 7 7 6 6 6 6 6 6 5 5 6 7 7 7 7 6 6 6 7 7 7 7 7 6 6 6 7 6 7 6 6 5 4 3 2 3 2 1 2 3 3
5 3 4 2 0 5 10 4 4 5 3 6 5 5 7 8 12 10 11 9 7 7 9 9 9 9 8 8 9 9 7 8 11 13 13 12 10 11 12 12 10 8 9 7 10 13 11 8 8 8 10 11 11 10 8 7 7 7 7 6 7 7 6 7 6 6 6 6 7 7 8 8 7 6 6 6 8 7 7 7 7 7 7 7 6 5 6 6 5 3 3 1 4 3 4 5 3
6 2 2 2 3 6 4 9 7 7 3 7 5 7 5 3 7 9 7 8 10 10 9 9 9 8 8 8 9 10 9 10 14 15 13 12 10 10 12 10 11 9 7 8 12 13 12 11 9 9 11 12 11 10 10 9 7 8 8 7 7 8 7 7 7 6 6 6 6 7 8 8 8 7 6 7 8 8 8 8 7 8 8 6 6 6 7 7 5 5 3 3 4 5 5 5 4
2 6 4 2 7 4 4 3 10 11 1 5 6 6 9 7 10 7 3 11 12 11 9 8 8 9 8 7 9 10 10 9 12 12 12 12 11 10 11 12 12 12 10 10 11 10 12 11 11 10 11 12 12 11 10 10 9 9 9 8 7 8 8 8 8 7 7 7 6 6 7 8 8 8 7 6 7 8 8 8 8 7 7 6 7 7 6 6 6 4 4 5 5 5 5 5 4
2 5 2 6 4 3 3 1 7 9 4 1 8 6 3 3 5 2 4 10 10 10 7 7 9 10 9 8 8 9 8 7 9 12 12 12 11 11 11 12 12 14 12 9 11 10 11 12 12 12 12 13 12 11 10 9 8 8 8 9 9 8 8 8 8 7 6 7 7 7 7 8 8 8 8 7 7 7 7 7 7 8 7 7 7 7 7 7 5 5 5 5 6 6 4 4 2
6 3 3 4 6 3 3 2 1 3 6 5 5 6 6 4 3 2 1 5 8 7 8 9 9 8 8 7 8 9 10 10 12 12 13 13 11 13 12 12 12 13 12 11 11 13 13 12 11 11 10 11 11 11 10 9 8 7 7 8 7 8 8 8 8 8 8 8 8 8 9 9 9 9 9 7 7 7 7 6 6 6 6 6 7 6 7 5 5 6 6 4 6 4 5 3 1
10 8 4 2 2 6 6 5 5 5 4 7 6 8 12 9 4 3 4 2 4 7 8 9 9 9 9 8 8 9 10 11 13 11 12 13 12 11 11 11 11 11 10 12 11 11 10 10 10 10 11 11 10 9 7 7 7 6 6 6 7 7 6 7 7 8 8 8 8 9 10 9 10 10 9 8 7 6 7 7 6 6 6 6 6 6 6 5 6 5 6 6 4 5 5 5 5
12 10 8 4 5 6 7 6 2 12 5 5 6 11 12 9 9 7 6 4 4 7 6 6 6 8 9 10 9 9 9 12 11 9 8 10 11 11 10 10 10 11 11 11 11 10 10 10 9 9 10 10 8 8 7 6 7 8 8 6 7 8 7 7 7 8 8 8 9 9 10 9 9 9 9 9 8 7 7 7 7 6 6 6 7 7 7 7 7 6 6 6 5 3 3 5 5
7 6 6 8 7 4 5 5 3 8 4 9 11 11 8 7 8 9 9 6 5 7 8 8 8 7 9 10 11 12 11 13 10 9 9 10 11 11 9 9 9 10 11 12 11 11 11 11 11 12 9 10 9 9 9 9 9 7 6 9 10 8 9 8 8 8 8 9 10 9 9 9 10 10 10 10 9 8 8 7 8 7 6 7 8 9 8 8 7 7 6 6 6 5 5 4 4
7 6 5 7 6 5 3 5 2 5 6 5 6 7 9 11 9 6 6 5 11 12 11 9 10 8 7 11 12 12 13 6 3 4 8 8 9 9 8 8 8 11 11 12 13 13 12 11 13 12 9 10 11 11 10 10 9 10 10 10 9 9 9 10 10 10 10 9 11 11 9 10 11 11 10 10 10 10 9 8 8 9 8 8 8 8 8 8 7 6 5 5 5 8 6 6 5
2 4 5 4 6 1 3 2 4 3 1 5 1 6 10 8 9 9 8 10 10 12 13 12 10 10 8 9 11 11 7 8 7 8 9 10 11 11 11 10 11 14 13 14 14 12 11 12 12 11 11 11 11 11 11 11 10 9 9 6 8 6 6 8 8 8 8 9 10 10 9 8 10 10 10 10 10 10 10 10 9 9 9 8 8 8 8 8 8 8 8 8 5 4 5 4 7
2 2 2 5 4 5 1 3 0 1 4 1 0 4 9 6 7 11 11 10 12 10 12 13 12 14 13 12 11 11 11 11 10 10 11 11 12 12 11 11 13 11 10 11 12 14 12 11 11 12 13 13 11 12 12 10 9 7 6 4 4 5 5 5 5 5 7 8 9 8 8 8 9 10 10 10 9 10 11 11 9 9 9 9 9 9 9 9 9 8 8 9 7 5 4 5 6
3 4 3 5 2 5 5 5 2 0 3 1 3 6 9 7 10 9 12 11 9 9 7 9 11 11 13 11 10 13 15 13 12 10 9 10 11 12 14 15 12 11 12 13 13 13 11 15 15 15 13 14 12 12 12 9 7 6 6 4 3 4 4 4 5 8 9 10 9 9 9 7 8 9 10 11 11 11 10 10 10 10 10 10 9 10 10 11 10 10 10 9 9 8 7 4 5
4 4 7 6 3 3 3 6 6 2 2 2 2 4 4 3 4 10 9 2 9 8 6 10 12 12 9 11 13 12 11 12 15 14 14 14 14 12 11 10 11 12 13 14 13 14 13 14 14 12 10 11 12 12 12 10 10 10 9 9 10 9 10 10 11 13 11 12 13 9 7 8 7 8 9 11 11 10 11 11 11 10 11 10 10 10 10 8 10 11 10 9 9 8 8 5 5
5 6 7 7 3 5 7 6 3 0 2 2 1 7 7 6 8 5 5 4 10 6 10 16 12 11 10 11 11 12 13 11 9 10 10 10 11 11 12 12 13 14 15 12 11 12 13 12 12 13 12 11 11 11 12 11 10 11 13 13 12 12 13 11 10 7 8 9 6 8 9 7 7 8 8 9 10 10 10 10 11 11 11 10 9 9 10 11 10 11 9 9 9 8 7 8 9
5 2 8 5 5 8 6 6 4 1 1 0 2 1 2 8 9 9 11 10 10 8 11 13 14 14 13 12 12 12 13 13 12 13 13 15 15 15 16 15 14 16 15 10 11 11 13 13 12 14 12 11 10 10 13 14 13 12 12 13 12 12 12 12 8 8 5 5 8 9 7 9 9 9 9 9 9 9 10 10 10 10 11 10 9 10 11 10 8 8 9 11 9 9 10 10 9
4 2 7 8 6 6 7 6 3 1 2 6 2 1 2 6 7 4 3 6 10 12 11 13 14 14 15 16 14 14 13 14 14 13 14 15 15 15 15 14 16 16 11 12 13 14 13 12 11 11 12 11 10 12 13 14 14 13 12 11 12 11 10 8 5 6 7 6 8 8 9 9 10 11 11 10 10 10 10 10 10 10 10 10 9 9 9 9 11 10 10 9 10 9 9 9 8
1 2 5 4 6 4 6 4 5 0 1 6 3 1 2 12 5 8 2 5 11 10 12 14 15 16 15 14 13 11 7 6 7 11 12 13 14 15 16 16 14 13 12 12 10 8 9 9 10 11 13 12 11 11 12 13 13 11 12 13 14 11 9 7 6 8 8 8 10 10 10 9 10 10 11 11 11 11 10 10 10 11 11 10 9 10 9 10 10 10 11 11 11 11 8 9 10
5 6 9 6 6 4 3 4 4 2 6 5 6 6 3 9 4 9 7 8 10 9 5 7 8 8 10 12 11 10 9 9 10 9 9 10 10 10 7 9 12 11 9 9 9 10 9 10 11 12 15 10 10 12 12 14 12 12 14 14 15 14 11 10 9 9 8 9 11 11 11 10 9 10 9 10 12 11 11 11 11 11 10 10 9 10 10 10 9 10 10 10 10 12 9 9 8
8 3 5 8 3 5 5 2 3 3 4 2 8 8 8 7 5 7 6 5 3 7 8 11 10 10 9 8 9 9 9 10 11 10 10 9 6 6 6 8 8 9 8 9 9 10 10 11 11 13 11 11 11 12 12 13 12 13 13 13 14 14 11 10 12 13 11 12 11 10 9 8 9 9 9 9 11 11 10 10 11 11 11 10 11 10 10 9 8 8 8 9 9 9 8 9 9
7 8 8 10 2 2 4 2 5 7 4 0 2 7 2 17 9 8 9 12 12 7 8 10 10 10 8 6 6 7 6 6 8 8 9 7 9 10 8 10 8 7 10 12 12 11 10 10 12 13 14 12 11 10 12 12 11 12 13 12 12 11 11 12 12 11 9 10 9 9 8 9 7 8 9 9 10 11 10 10 11 11 10 11 11 10 10 9 9 9 9 9 9 9 9 10 9
11 12 10 9 4 6 7 3 2 2 1 2 2 4 8 3 9 13 21 21 11 12 10 7 7 7 5 3 4 5 6 6 7 8 8 9 10 9 10 10 10 10 10 10 9 9 9 9 10 12 15 9 8 8 11 11 13 12 11 12 12 10 11 12 11 10 8 7 7 8 9 9 9 10 9 11 9 9 10 11 10 11 10 9 9 9 9 8 8 9 8 10 10 9 8 10 11
8 5 11 7 6 4 8 6 9 6 4 2 2 4 7 5 5 0 7 8 8 8 10 7 5 5 5 2 0 1 4 5 6 7 9 10 9 8 8 8 8 7 7 8 7 8 8 9 10 12 11 8 9 10 8 11 11 11 10 10 11 9 10 9 9 8 7 8 7 8 8 7 9 8 9 8 7 9 10 9 9 9 8 7 7 7 7 7 9 9 8 9 8 8 9 9 9
1 4 5 5 10 4 3 2 3 3 2 1 2 7 4 6 6 9 9 7 6 4 4 4 5 3 2 3 4 4 4 5 4 5 5 5 5 5 5 5 6 6 7 6 7 7 7 10 9 10 10 7 7 8 9 10 10 8 8 10 10 9 8 7 7 7 7 7 8 9 9 8 8 8 8 7 9 9 9 9 8 9 8 7 7 7 7 6 7 8 8 7 8 7 9 10 9
7 8 10 8 2 3 3 1 0 4 3 7 2 7 7 8 12 15 16 10 8 1 4 1 5 4 3 5 5 5 5 5 4 5 5 6 4 4 5 6 5 6 6 9 10 9 10 8 7 7 6 5 7 7 8 7 7 7 8 7 6 7 8 8 9 8 8 7 8 8 8 9 9 8 8 7 7 7 7 8 8 7 7 7 7 7 9 9 7 7 7 6 8 7 8 9 7
6 8 10 5 3 3 5 6 1 2 5 4 4 7 7 2 10 4 5 5 6 3 5 6 4 4 5 6 6 8 7 7 6 5 5 6 6 7 6 5 6 7 8 6 6 5 5 6 7 7 5 7 5 5 6 6 6 6 6 6 6 8 8 8 8 8 8 8 8 6 6 7 8 7 6 5 6 7 7 6 6 6 7 7 7 7 5 7 9 9 7 7 7 7 8 5 6
11 7 7 11 5 7 4 2 5 7 7 3 3 4 7 8 9 6 10 4 5 5 6 4 5 5 7 7 8 6 4 3 4 5 5 5 6 6 6 6 5 5 5 5 4 4 4 4 4 5 6 6 7 7 6 6 5 6 6 7 7 7 6 6 7 7 6 7 7 5 5 5 4 4 4 4 6 6 6 6 6 6 6 6 7 8 9 7 5 6 8 11 9 7 7 9 9
1 7 9 4 3 0 8 8 1 4 7 2 6 3 8 7 6 9 18 17 11 6 5 7 8 7 8 8 6 6 5 4 5 5 5 6 6 6 6 6 6 5 4 4 4 3 5 4 5 6 6 5 5 5 5 6 5 5 4 4 4 5 5 5 5 5 5 5 4 4 3 3 4 3 4 4 5 6 6 7 6 6 6 5 5 4 6 10 9 8 5 4 3 5 4 4 3
8 9 8 5 1 2 4 0 5 5 3 4 2 4 6 8 9 14 17 16 11 6 9 8 7 8 9 8 7 6 5 5 6 6 6 6 6 5 5 4 4 2 1 2 2 3 3 2 4 4 5 5 4 4 3 4 3 4 4 4 3 2 1 1 1 1 1 1 1 1 1 2 1 2 3 4 5 6 6 7 7 7 6 6 7 8 6 6 8 11 9 9 8 9 10 7 6
11 12 13 14 11 8 10 8 1 3 3 6 5 11 4 9 3 7 11 10 6 6 8 7 8 10 9 8 6 6 6 6 7 6 5 5 5 4 2 2 1 3 3 3 1 2 3 5 5 4 2 2 4 3 4 5 4 4 4 2 1 2 3 3 2 3 2 2 1 1 0 0 0 1 1 3 3 4 4 5 6 7 8 9 6 5 6 9 9 6 5 4 6 9 8 8 9
Wind_Direction
313 311 300 287 250 300 55 8 58 307 62 281 267 16 201 322 130 61 37 1 54 325 111 71 29 45 89 129 115 101 29 92 262 148 202 163 112 122 114 120 118 115 113 110 100 102 106 116 123 124 119 117 115 112 108 105 102 99 97 95 95 103 101 99 99 97 100 104 107 101 94 96 98 93 93 95 93 90 86 88 90 86 83 84 84 83 81 79 79 78 74 71 68 67 67 69 69
294 316 312 303 276 53 330 131 106 358 37 28 28 93 152 10 40 98 92 87 147 141 96 80 56 69 101 117 129 100 40 41 48 122 79 99 111 111 123 117 121 123 120 117 110 107 107 115 125 125 117 115 112 110 112 113 107 103 103 106 104 95 94 97 97 97 99 99 101 101 97 94 92 91 96 98 93 95 97 91 90 89 86 84 82 82 85 86 82 77 74 72 70 69 69 69 68
318 354 338 15 42 86 258 48 1 17 65 90 274 167 39 72 94 90 101 97 114 113 72 49 61 65 94 108 45 62 234 64 74 51 89 131 111 148 128 123 124 128 129 122 117 115 118 124 130 127 118 116 113 112 110 107 106 106 104 103 106 109 107 105 101 101 107 108 105 102 100 99 98 96 90 93 99 94 89 90 92 94 92 88 87 84 78 76 76 75 74 75 72 69 70 70 67
289 264 114 37 339 15 58 20 108 141 127 188 47 360 99 118 105 116 102 103 102 91 67 31 59 292 83 72 109 83 110 129 6 128 122 143 141 144 130 131 133 135 130 124 124 124 124 129 133 128 121 119 115 112 112 110 108 107 107 108 101 100 104 102 101 101 98 105 106 101 101 101 98 95 92 94 91 94 95 95 93 92 91 88 86 86 83 83 83 81 77 73 70 70 70 70 67
306 292 135 80 84 358 79 202 149 100 56 190 104 80 118 118 121 97 71 54 38 58 47 94 76 14 76 82 58 84 174 108 144 80 114 106 114 127 123 128 131 131 123 125 124 127 129 133 136 131 126 122 118 115 111 105 104 109 113 109 104 104 102 101 105 104 104 97 100 105 103 102 102 97 91 93 98 102 102 98 94 91 90 89 90 88 84 81 80 79 76 73 72 71 69 67 60
322 355 30 100 125 185 49 27 347 27 247 169 97 152 137 128 115 110 87 57 57 68 79 75 134 92 41 35 11 97 149 132 174 90 138 120 124 119 113 120 117 119 121 119 124 125 132 134 137 137 130 126 123 121 116 114 113 114 107 103 105 106 105 106 98 102 101 98 100 97 98 101 102 102 97 95 93 95 93 89 88 90 87 90 89 88 87 85 81 80 77 74 73 71 68 62 54
4 10 3 26 344 57 170 104 355 171 344 119 119 140 136 130 123 105 76 39 344 44 27 90 104 100 87 142 69 38 254 133 128 150 125 141 122 116 122 127 105 115 116 117 118 123 133 139 143 140 129 128 127 127 125 121 119 113 109 114 117 112 108 108 110 101 100 100 101 104 99 98 103 102 99 103 101 97 94 94 93 90 89 87 85 87 88 86 83 80 76 74 71 69 65 59 53
127 87 302 74 306 42 330 157 223 148 59 85 145 128 133 131 126 102 152 94 213 99 325 62 79 89 11 60 119 4 40 52 107 111 127 126 122 124 135 123 103 112 113 116 119 123 135 138 140 136 125 128 133 130 126 124 124 124 123 116 112 114 114 112 110 112 110 107 105 109 108 108 105 103 101 100 101 98 99 99 96 94 94 92 89 87 86 86 84 80 78 75 72 68 63 57 52
13 80 328 66 360 5 354 167 223 241 146 49 80 134 139 137 126 108 122 163 96 113 135 78 109 87 191 69 68 108 56 86 97 113 123 127 128 130 131 100 111 114 115 118 121 122 128 133 130 129 124 130 132 131 128 129 131 128 121 118 124 122 120 113 112 113 114 113 113 110 109 111 114 114 107 103 99 99 99 97 93 93 92 92 91 89 87 86 84 82 78 75 71 68 63 58 52
6 106 308 145 123 331 305 307 97 229 134 183 115 118 133 127 126 130 127 77 139 88 354 125 83 115 128 99 116 71 124 109 108 104 119 133 135 129 104 114 120 120 116 121 125 130 135 123 117 117 119 124 128 126 125 129 129 121 123 120 124 124 122 116 117 119 116 116 118 118 114 111 104 93 99 103 101 99 98 94 91 90 89 90 93 92 90 87 85 84 81 77 73 67 60 54 48
4 1 154 45 34 323 291 277 184 137 104 73 47 70 116 128 117 107 125 128 104 128 319 71 91 127 115 96 22 262 137 123 120 137 152 134 122 123 112 125 122 122 123 126 130 131 130 119 114 112 108 106 107 114 124 126 131 126 128 130 125 120 126 126 121 119 117 121 122 122 120 113 94 94 106 104 100 101 99 97 96 95 95 94 92 88 88 88 86 82 80 77 73 68 62 52 41
11 358 17 172 210 187 233 196 167 86 32 42 46 44 14 99 100 106 126 100 117 127 143 106 151 127 77 127 164 168 138 131 137 145 137 107 111 112 109 120 121 122 126 130 130 129 125 121 115 112 108 102 94 90 103 120 119 126 127 133 133 126 120 119 121 125 130 121 111 109 111 105 90 82 76 72 92 105 104 105 103 102 99 98 97 95 92 89 88 85 79 77 74 72 68 60 45
139 197 48 80 237 171 199 129 155 91 30 343 155 287 73 92 142 148 126 140 137 97 53 225 149 102 107 128 160 152 137 160 140 139 112 105 108 104 105 115 120 121 124 132 132 134 130 130 123 116 116 104 97 93 95 111 118 124 130 134 137 129 126 129 131 141 131 120 109 107 104 92 87 81 76 72 66 81 94 98 105 105 103 101 96 96 93 90 88 85 82 79 79 77 74 69 62
117 86 122 264 232 279 280 208 105 94 10 255 271 301 25 83 358 104 107 62 40 114 219 238 71 99 92 105 139 163 175 151 139 126 104 111 106 104 102 123 124 130 134 138 141 142 140 136 129 132 127 117 111 98 99 113 125 129 133 131 128 123 114 106 105 105 108 109 106 105 96 92 86 81 75 75 74 83 89 88 92 101 100 97 97 93 95 93 90 88 88 87 89 89 91 89 80
292 45 125 162 302 18 249 125 189 128 176 174 268 26 55 41 112 57 100 111 45 247 280 66 155 84 201 154 187 186 170 153 141 117 112 105 110 98 97 133 135 134 138 143 146 149 147 141 141 145 141 133 130 123 117 119 126 129 129 130 118 110 116 113 112 114 115 110 107 105 98 94 89 85 81 83 86 87 89 88 93 99 103 102 99 101 100 98 95 95 95 99 98 98 102 111 121
133 66 84 40 270 30 283 90 111 99 186 177 255 82 76 333 60 86 333 161 179 341 71 268 5 153 161 172 179 166 152 145 136 118 107 101 100 99 94 99 132 137 144 150 154 156 153 151 152 147 146 137 139 136 132 125 126 131 132 126 120 120 121 121 119 119 119 118 119 116 113 106 99 95 92 82 82 82 89 92 95 109 111 115 114 111 108 105 104 105 105 107 107 102 101 104 289
47 77 345 20 289 46 284 68 131 131 218 277 296 29 114 121 329 89 181 73 105 76 57 358 100 54 155 171 141 137 138 129 122 116 106 109 111 114 90 78 116 124 135 163 158 162 163 161 163 154 160 148 143 136 129 125 126 121 125 131 129 129 130 128 125 123 124 128 128 129 126 121 120 114 97 100 88 86 93 94 89 81 107 120 120 119 115 113 114 114 121 119 106 85 357 333 309
60 92 130 274 208 109 263 330 202 167 119 205 257 170 106 109 14 32 64 34 90 75 90 38 43 42 84 111 125 131 133 130 135 131 132 131 135 144 132 150 147 177 156 174 167 163 166 170 171 168 163 160 149 141 137 135 135 136 135 135 132 134 132 130 131 137 139 148 145 143 140 141 129 108 109 109 103 100 88 96 96 99 87 87 116 121 122 129 129 132 150 150 184 175 292 317 302
107 149 114 216 162 246 131 204 17 91 161 160 163 80 129 183 126 272 96 218 134 104 75 88 76 69 82 106 124 132 135 136 143 146 149 151 153 167 164 161 178 188 195 189 179 167 169 175 177 175 172 163 152 146 144 148 147 144 146 146 144 145 147 142 147 148 157 159 166 167 137 134 129 127 130 121 112 104 97 95 101 97 94 96 113 118 132 146 171 173 187 252 261 289 304 273 291
253 118 194 256 188 93 42 50 51 10 152 123 106 64 92 181 118 137 147 198 166 162 134 62 123 135 133 132 134 139 141 145 150 155 161 163 164 167 173 168 176 192 195 190 181 172 172 176 180 181 177 157 152 152 150 153 153 153 155 150 150 155 160 157 158 163 178 169 177 181 119 122 133 130 133 128 120 120 106 89 116 118 121 114 135 142 250 271 205 238 250 307 306 291 215 241 263
264 95 171 203 194 93 320 40 7 347 97 135 114 84 66 356 141 123 181 97 254 246 195 164 176 161 156 153 148 147 149 152 156 161 169 175 176 177 179 183 174 175 181 189 204 190 172 180 168 179 179 146 155 156 157 162 162 158 164 159 159 162 176 176 175 180 190 186 181 174 150 137 144 134 141 140 138 137 145 149 150 167 170 200 203 224 237 255 261 269 278 296 292 274 280 278 200
103 201 194 133 80 81 219 109 1 334 329 83 76 88 187 280 56 98 139 158 239 214 205 208 165 157 156 160 160 154 161 163 166 171 180 186 183 180 179 177 178 173 171 170 196 200 186 195 171 152 175 149 158 160 167 170 166 166 170 174 166 170 179 183 191 190 201 204 171 182 151 150 150 147 161 158 148 153 160 178 184 187 193 208 192 224 221 222 238 243 239 245 256 250 250 239 222
181 271 269 249 153 142 209 52 301 36 52 83 80 181 103 73 261 234 164 186 231 217 211 180 161 165 165 153 155 164 169 174 175 179 179 186 195 194 185 179 173 184 182 181 173 190 183 186 180 147 173 154 160 165 167 166 178 175 172 176 168 183 183 182 203 190 199 209 163 168 145 161 154 157 159 167 156 162 185 189 190 189 195 206 200 201 221 222 223 224 234 253 261 258 241 229 231
89 200 225 251 145 136 143 138 305 46 82 88 182 50 92 71 124 168 155 244 223 247 215 148 158 146 148 156 172 173 178 178 184 183 184 187 188 196 187 185 175 169 177 183 175 170 180 182 179 152 182 162 168 168 161 173 184 170 172 177 178 181 178 194 190 196 181 202 162 163 160 158 154 160 166 168 178 179 193 203 189 185 198 214 207 198 207 223 228 219 219 242 239 235 256 282 272
175 248 222 244 126 161 144 155 131 89 68 174 55 62 264 180 214 114 254 241 221 203 132 119 135 148 163 165 175 179 179 184 182 181 181 189 194 197 204 191 163 163 173 181 183 170 181 177 172 171 178 174 177 168 177 174 179 160 167 173 182 159 185 194 183 188 175 197 162 157 161 158 145 160 164 185 166 180 196 191 183 194 186 203 195 205 201 208 227 233 207 212 219 260 280 272 258
194 187 208 336 117 164 160 160 188 186 223 113 55 272 274 265 207 255 235 244 207 173 122 136 144 155 167 178 178 177 182 186 185 181 187 183 184 192 213 203 169 176 180 175 176 188 179 176 177 177 177 178 178 172 188 173 181 157 171 179 184 158 174 200 174 181 185 185 189 160 172 172 169 166 174 185 172 204 195 191 157 180 188 184 183 203 223 194 218 229 231 233 252 244 221 241 235
158 173 189 183 237 142 201 164 212 204 190 171 181 254 267 261 100 272 284 259 166 142 142 150 152 168 178 179 184 181 179 185 187 186 167 175 185 190 204 208 174 190 170 176 181 185 182 175 183 179 177 175 175 182 186 181 182 175 171 184 178 184 191 176 178 182 178 184 190 178 182 174 183 175 176 183 184 191 193 187 190 193 203 199 191 201 221 212 212 217 213 192 195 209 228 209 194
164 177 127 80 354 354 254 217 227 111 288 192 165 240 242 275 193 219 235 271 144 144 154 161 165 176 183 183 185 189 185 188 179 170 189 181 190 190 195 204 193 184 179 180 182 181 176 181 182 182 177 178 180 188 182 179 188 189 174 176 183 189 181 201 189 183 179 182 186 185 192 189 178 182 185 182 182 184 186 186 197 188 208 202 195 197 207 216 187 197 196 191 188 199 245 297 266
163 149 188 191 25 302 252 213 231 160 264 184 175 332 283 196 224 213 223 188 151 152 169 172 177 182 183 186 186 188 196 179 174 185 198 199 190 188 193 204 191 180 195 178 176 174 182 179 177 184 178 179 186 189 190 183 187 185 179 183 184 182 192 199 201 198 183 179 184 188 194 199 194 175 193 183 182 183 182 189 196 201 203 199 199 192 197 209 200 184 212 222 209 255 320 298 301
85 74 129 115 319 266 236 236 214 179 229 168 137 276 238 227 227 223 216 194 165 159 178 187 186 186 186 185 188 195 195 176 183 195 198 198 192 191 196 200 198 181 185 188 169 179 181 179 179 177 181 182 189 190 190 186 186 185 183 180 180 179 188 196 206 203 193 182 181 191 192 199 203 193 180 195 180 183 187 190 194 204 206 200 195 178 187 191 193 197 238 200 238 225 239 249 268
124 164 72 159 155 251 226 195 192 193 186 165 147 232 241 252 238 236 235 186 176 188 191 191 191 192 193 185 187 195 198 190 193 199 198 195 194 194 197 194 200 190 174 185 185 182 178 180 180 182 182 185 186 190 191 194 187 184 183 181 182 182 186 194 199 201 197 196 179 189 192 194 204 204 192 187 189 184 189 195 197 203 202 192 186 191 186 195 185 197 204 202 231 226 228 247 244
154 106 242 264 180 273 301 220 170 188 225 178 128 247 256 243 253 266 221 180 179 192 197 197 196 196 196 190 186 192 198 196 201 203 199 195 192 195 195 195 194 198 185 184 188 178 183 182 183 184 180 184 187 189 192 193 191 187 185 186 182 184 185 193 195 197 198 195 189 188 194 192 197 207 202 196 191 189 187 194 203 200 199 175 184 188 183 188 195 202 216 200 212 233 218 242 212
270 165 206 204 191 248 353 298 183 177 140 259 179 226 305 297 258 233 205 165 176 183 198 198 202 203 198 195 190 190 190 199 202 205 200 193 194 194 195 194 193 195 195 179 184 183 185 185 183 185 183 187 186 187 189 192 189 188 186 188 188 184 187 192 196 196 194 192 196 194 195 194 196 204 206 201 197 199 201 197 200 198 188 178 177 184 186 193 179 198 224 212 199 215 215 238 321
213 190 176 211 188 186 258 316 259 158 145 215 236 240 234 262 330 276 237 177 169 187 202 204 202 202 206 199 191 187 191 194 202 204 202 193 193 193 193 193 193 194 195 189 184 185 186 184 185 186 187 189 188 186 186 188 191 187 191 194 191 189 194 194 195 194 196 196 194 200 197 196 200 203 207 202 201 203 202 202 205 204 185 180 187 186 195 194 196 192 220 219 198 191 205 211 206
184 188 187 272 230 192 200 155 222 147 197 191 225 239 249 248 265 291 257 276 201 205 205 205 205 205 204 199 199 195 194 199 212 205 196 194 190 192 192 192 191 191 192 194 186 186 183 186 185 187 184 186 188 186 182 183 188 194 196 194 198 201 202 201 195 199 202 199 198 199 197 197 201 204 206 204 201 201 204 204 206 208 197 186 186 192 198 201 205 204 202 225 221 202 196 188 179
179 172 180 163 173 217 210 227 216 172 177 217 211 225 238 247 255 256 268 258 229 237 235 237 220 205 202 201 201 198 201 212 216 207 190 192 191 187 189 190 189 189 192 192 192 182 183 184 187 188 190 180 179 186 181 182 184 191 196 197 205 207 205 204 206 204 203 206 204 200 199 197 197 201 204 205 205 199 199 205 206 204 201 191 193 193 201 197 198 197 210 206 215 228 219 176 165
155 160 168 199 200 238 224 219 230 177 141 215 217 233 246 255 237 240 240 239 239 247 242 232 232 209 203 206 203 203 203 213 212 195 189 191 192 191 185 180 184 188 190 191 191 194 187 180 183 194 189 178 176 182 189 190 192 195 201 201 204 198 200 202 208 208 208 209 209 206 199 198 196 198 201 200 205 205 204 202 205 206 194 195 196 201 197 199 200 197 202 197 192 191 219 197 179
149 168 175 216 203 222 245 203 172 176 159 255 235 251 254 250 258 247 245 231 229 223 229 229 229 225 204 203 207 205 210 224 159 177 203 194 191 193 181 180 177 184 198 190 193 195 195 183 185 190 184 187 187 186 188 196 200 201 196 199 195 195 193 198 207 207 207 207 208 209 203 199 198 198 198 199 202 203 205 203 202 205 195 198 199 199 198 199 200 203 195 214 210 188 208 191 191
132 145 184 209 225 151 346 39 146 199 130 273 249 231 253 254 258 259 239 229 231 222 221 222 213 224 218 203 205 207 211 216 199 202 194 197 193 188 187 189 192 193 189 193 196 190 190 193 191 186 189 189 194 189 186 198 200 204 203 206 199 201 217 211 213 211 208 210 212 211 209 201 200 201 198 199 199 203 205 204 207 205 202 193 195 204 200 202 200 204 201 199 213 219 201 199 181
148 134 152 206 207 144 256 296 332 247 159 214 77 298 274 261 252 252 248 236 237 225 221 226 210 213 214 205 195 199 206 209 207 201 200 200 193 191 190 193 198 193 189 197 196 194 192 194 192 191 193 194 193 196 196 197 195 195 204 196 211 206 199 218 226 222 219 222 222 211 216 206 200 203 199 200 203 204 203 206 206 208 209 200 200 201 202 205 201 204 202 205 189 201 200 215 199
195 178 172 205 202 212 147 207 165 337 307 13 346 308 289 240 243 250 243 235 246 242 227 234 233 222 214 211 205 195 199 200 203 205 203 196 197 196 194 199 190 191 196 196 195 195 196 196 197 194 193 195 196 195 196 188 173 176 181 181 185 222 256 227 206 222 214 215 218 215 213 198 203 204 201 202 203 206 205 206 206 208 209 208 205 207 206 206 204 203 196 195 195 193 206 194 217
232 223 184 193 171 99 98 118 119 27 333 295 144 331 295 288 261 248 267 289 245 238 227 232 224 224 224 220 213 213 213 197 196 198 197 195 196 200 203 197 192 200 202 204 198 198 196 201 200 197 194 194 198 196 190 184 190 190 183 191 201 206 217 214 214 211 205 206 211 210 207 202 203 208 206 204 206 206 207 207 208 207 210 210 208 210 209 205 207 206 201 196 200 200 188 188 200
162 248 178 194 144 122 125 143 95 137 188 284 66 195 271 328 305 258 268 238 245 247 221 236 229 223 222 223 220 215 211 214 215 202 194 189 199 197 202 198 200 202 211 203 200 202 203 203 201 199 199 198 194 193 185 185 192 197 200 205 209 208 214 223 223 221 211 215 206 207 213 213 213 211 214 211 208 209 210 209 210 212 213 213 210 210 211 207 206 205 199 199 201 193 178 195 195
215 232 169 177 148 129 161 144 145 169 245 313 31 134 255 292 266 257 256 254 253 246 241 237 233 229 223 218 217 217 213 206 199 201 198 195 193 193 198 202 200 207 208 195 203 205 205 204 199 201 203 201 196 187 188 190 195 197 201 207 210 216 216 224 213 221 215 197 205 212 207 218 219 220 219 216 214 209 212 214 212 214 217 218 210 215 215 211 207 206 201 203 201 194 192 198 197
212 216 179 181 179 159 148 128 122 175 99 275 311 357 327 252 271 286 242 280 268 250 238 238 234 229 228 225 218 213 209 203 197 198 201 198 197 198 200 200 206 208 199 196 203 204 204 204 203 202 206 203 200 191 191 196 199 198 201 204 213 220 220 223 206 210 208 199 210 210 209 215 218 222 222 221 218 216 212 217 214 216 219 220 215 221 222 214 209 204 203 204 205 204 199 200 186
247 104 85 87 78 75 120 105 102 57 122 248 219 168 223 273 228 261 254 223 250 245 231 231 228 225 224 228 228 221 215 215 217 211 204 203 203 204 202 201 201 204 200 202 205 202 205 203 205 203 211 205 200 196 196 199 201 198 203 208 214 216 210 213 194 205 205 194 213 212 211 213 214 219 222 224 225 222 218 216 220 219 220 221 217 223 224 220 216 213 208 205 205 205 203 197 199
129 91 80 62 52 68 52 74 107 69 247 239 198 202 142 290 238 209 179 219 219 242 258 255 248 240 237 232 225 216 208 207 207 211 215 213 212 211 214 209 208 205 199 193 196 197 197 198 205 207 214 206 199 201 198 203 199 201 210 210 212 215 207 205 208 215 205 202 212 213 210 213 211 217 215 222 222 220 219 216 218 222 221 221 221 223 225 223 220 218 214 210 207 206 203 205 206
125 95 129 87 14 24 36 5 40 200 254 226 175 186 171 217 289 276 252 285 250 210 231 244 242 237 233 225 224 220 211 207 209 208 215 214 216 217 191 214 218 211 196 195 199 196 195 200 199 209 214 207 204 203 201 206 200 207 213 212 215 217 207 209 213 218 210 211 214 215 212 211 218 218 217 218 220 218 216 218 217 220 220 219 222 223 226 226 224 219 214 209 211 211 205 202 203
125 124 117 142 187 77 235 67 226 219 201 300 192 156 350 242 245 285 286 263 259 237 224 236 237 244 247 247 235 228 220 216 210 213 213 211 209 208 202 208 206 202 198 201 201 197 198 198 199 205 216 208 206 201 205 207 204 211 211 214 220 216 215 218 220 224 216 217 216 218 207 214 211 216 219 218 221 211 212 216 212 214 218 219 222 220 225 223 219 215 211 211 208 205 206 202 207
153 162 152 147 142 186 215 169 332 290 275 265 147 173 245 289 282 231 245 261 257 246 239 241 237 227 227 233 237 201 203 189 191 194 197 199 203 206 202 199 198 198 201 201 199 195 197 200 201 205 220 204 203 198 206 206 212 213 209 212 216 211 218 219 223 225 222 219 211 216 213 213 209 213 210 218 213 207 210 213 212 215 216 217 219 223 220 217 216 213 209 210 211 214 206 206 211
174 113 158 178 155 167 202 174 199 214 191 229 272 130 233 138 248 231 235 246 269 261 231 222 230 209 188 187 209 160 155 182 173 178 187 192 198 193 191 192 192 194 193 195 196 201 194 201 199 208 217 200 195 203 200 208 213 213 211 212 213 211 217 218 224 222 216 214 211 214 217 213 216 217 215 217 207 211 214 214 216 218 218 218 217 224 224 217 213 216 213 211 213 209 209 207 215
309 152 68 153 212 109 171 200 145 170 140 225 215 212 186 198 266 285 256 255 269 282 257 237 229 186 144 137 171 189 203 197 202 193 208 223 215 211 208 200 205 203 201 196 201 198 196 206 200 206 208 195 196 201 207 208 213 207 209 209 209 207 210 210 217 213 215 208 212 213 217 214 216 219 221 213 214 208 213 218 220 224 224 223 223 227 228 225 218 216 213 209 214 202 209 208 212
194 136 199 197 164 105 99 23 329 101 55 245 175 296 287 297 294 278 283 280 265 308 279 266 254 238 199 201 217 231 230 230 218 212 218 229 240 230 210 206 211 214 210 207 205 198 200 196 194 205 205 198 206 208 210 211 210 205 214 208 202 202 203 209 213 214 211 209 211 215 216 217 216 214 222 214 213 209 212 213 216 220 222 219 215 222 226 221 222 220 214 212 209 199 208 207 200
104 180 199 105 46 108 143 215 63 207 195 259 163 220 285 8 281 302 334 285 272 261 243 238 235 250 240 240 231 223 222 222 223 226 224 216 210 209 209 210 201 201 208 213 215 207 200 192 192 197 196 206 218 212 218 215 214 214 211 206 207 204 204 211 211 216 213 214 220 219 222 228 226 223 213 211 207 208 210 204 207 208 212 212 209 200 222 244 219 206 210 213 206 197 209 212 209
171 188 154 146 203 201 225 117 226 191 225 254 264 210 249 194 245 310 289 244 262 232 238 240 244 233 229 240 251 263 272 271 245 223 212 208 205 206 203 204 212 207 201 194 181 163 156 166 176 176 199 206 206 210 212 217 207 209 201 203 203 209 211 213 215 215 211 217 225 226 229 240 263 237 208 198 197 200 198 200 201 207 206 213 215 210 203 216 242 247 214 204 199 199 207 214 212
59 124 176 190 91 303 146 199 125 125 239 118 298 128 245 209 217 219 253 263 247 214 218 227 218 216 219 231 238 240 241 221 211 207 203 203 204 203 200 202 207 201 187 191 180 173 181 186 182 196 202 204 210 213 205 206 206 195 200 192 206 204 209 214 219 211 220 223 231 234 245 261 244 240 223 201 196 192 190 192 198 200 207 206 221 253 231 211 211 225 228 250 226 190 194 197 189
165 169 181 194 179 249 117 225 175 172 173 191 220 258 270 248 214 211 232 242 250 196 203 214 214 220 221 218 216 216 207 205 216 208 210 213 215 222 226 219 207 192 173 144 156 179 193 185 204 205 194 204 205 214 196 211 189 193 177 185 178 142 119 67 68 30 237 269 274 189 186 208 165 205 201 199 198 199 196 196 193 196 198 211 206 212 228 255 236 218 206 200 197 195 191 179 163
188 181 186 180 161 133 167 235 110 138 183 230 154 248 273 266 198 201 246 246 244 220 185 200 214 219 216 222 223 201 192 216 207 213 209 209 214 220 203 180 161 150 166 178 196 170 198 204 208 207 207 209 190 204 181 198 195 171 165 142 95 56 58 50 47 33 38 11 350 359 225 74 139 258 164 190 204 207 199 196 202 203 198 198 208 235 229 218 215 237 244 228 199 189 182 181 184